Weather History for Moncks Corner, SC

Change the Weather History Date:

Sunday, September 30, 2012

  Actual Average (KCHS) Record (KCHS)
Temperature  
Mean Temperature 22 °C 22 °C  
Max Temperature 23 °C 27 °C 33 °C (1944)
Min Temperature 21 °C 17 °C 5 °C (1967)
Degree Days  
Heating Degree Days 0 0  
Month to date heating degree days 0  
Since 1 July heating degree days 3  
Cooling Degree Days 6 7  
Month to date cooling degree days 333  
Year to date cooling degree days 2138  
Growing Degree Days 21 (Base 50)    
Moisture  
Dew Point 20 °C    
Average Humidity 89    
Maximum Humidity 94    
Minimum Humidity 83    
Precipitation  
Precipitation 1.27 mm 4.32 mm 6.53 mm (1938)
Month to date precipitation 6.10  
Year to date precipitation 41.74  
Sea Level Pressure  
Sea Level Pressure 1011 hPa    
Wind  
Wind Speed 3 km/h (ENE)    
Max Wind Speed 11 km/h    
Max Gust Speed -    
Visibility 10 kilometers    
Events Rain    
T = Trace of Precipitation, MM = Missing Value Source: NWS Daily Summary

Daily Weather History Graph

Daily Weather History Graph

Search for Another Location

Airport:

Trip Planner

Search our weather history database for the weather conditions in past years. The results will help you decide how hot, cold, wet, or windy it might be!

Date:

Astronomy

Sep. 30, 2012 Rise Set
Actual Time 7:14 AM EDT 7:05 PM EDT
Civil Twilight 6:49 AM EDT 7:30 PM EDT
Nautical Twilight 6:20 AM EDT 7:58 PM EDT
Astronomical Twilight 5:51 AM EDT 8:27 PM EDT
Moon 7:13 PM EDT 7:38 AM EDT
Length of Visible Light 12h 40m
Length of Day
11h 51m
Full, 100% of the Moon is Illuminated
Sep 30
Full
Oct 8
Last Quarter
Oct 15
New
Oct 21
First Quarter
Oct 29
Full

Hourly Weather History & Observations

Time (EDT) Temp. Dew Point Humidity Pressure Visibility Wind Dir Wind Speed Gust Speed Precip Events Conditions
12:15 AM 22.0 °C 20.0 °C 88% 1012.4 hPa 11.3 km Calm Calm - N/A   Scattered Clouds
12:35 AM 22.0 °C 20.0 °C 88% 1011.7 hPa 11.3 km SSW 7.4 km/h / 2.1 m/s - N/A   Clear
12:55 AM 21.0 °C 20.0 °C 94% 1011.7 hPa 16.1 km WSW 7.4 km/h / 2.1 m/s - N/A   Clear
1:15 AM 21.0 °C 19.0 °C 88% 1011.4 hPa 11.3 km SW 9.3 km/h / 2.6 m/s - N/A   Clear
1:55 AM 21.0 °C 19.0 °C 88% 1011.4 hPa 16.1 km WSW 11.1 km/h / 3.1 m/s - N/A   Clear
2:15 AM 21.0 °C 19.0 °C 88% 1011.4 hPa 16.1 km WSW 9.3 km/h / 2.6 m/s - N/A   Clear
2:35 AM 21.0 °C 19.0 °C 88% 1011.4 hPa 16.1 km WSW 5.6 km/h / 1.5 m/s - N/A   Clear
2:55 AM 21.0 °C 19.0 °C 88% 1011.1 hPa 16.1 km Calm Calm - N/A   Clear
3:15 AM 21.0 °C 19.0 °C 88% 1011.1 hPa 16.1 km WSW 5.6 km/h / 1.5 m/s - N/A   Clear
3:35 AM 21.0 °C 19.0 °C 88% 1011.1 hPa 16.1 km WSW 5.6 km/h / 1.5 m/s - N/A   Clear
3:55 AM 21.0 °C 19.0 °C 88% 1011.1 hPa 16.1 km Calm Calm - N/A   Clear
4:15 AM 21.0 °C 19.0 °C 88% 1011.1 hPa 16.1 km Calm Calm - N/A   Clear
4:35 AM 21.0 °C 19.0 °C 88% 1011.1 hPa 16.1 km Calm Calm - N/A   Clear
4:55 AM 21.0 °C 19.0 °C 88% 1011.1 hPa 11.3 km Calm Calm - N/A   Clear
5:15 AM 21.0 °C 19.0 °C 88% 1011.1 hPa 11.3 km Calm Calm - N/A   Clear
5:35 AM 21.0 °C 19.0 °C 88% 1011.1 hPa 11.3 km Calm Calm - N/A   Clear
5:55 AM 21.0 °C 19.0 °C 88% 1011.1 hPa 11.3 km Calm Calm - N/A   Clear
6:15 AM 21.0 °C 19.0 °C 88% 1011.1 hPa 11.3 km Calm Calm - N/A   Scattered Clouds
6:35 AM 21.0 °C 20.0 °C 94% 1011.4 hPa 11.3 km Calm Calm - N/A   Mostly Cloudy
6:55 AM 21.0 °C 20.0 °C 94% 1011.1 hPa 8.0 km Calm Calm - N/A   Overcast
7:15 AM 21.0 °C 20.0 °C 94% 1011.1 hPa 11.3 km Calm Calm - N/A   Overcast
7:35 AM 21.0 °C 20.0 °C 94% 1011.1 hPa 8.0 km Calm Calm - N/A   Overcast
7:55 AM 21.0 °C 20.0 °C 94% 1011.4 hPa 6.4 km Calm Calm - N/A   Overcast
8:15 AM 21.0 °C 20.0 °C 94% 1011.4 hPa 8.0 km Calm Calm - N/A   Overcast
8:35 AM 21.0 °C 20.0 °C 94% 1012.1 hPa 8.0 km Calm Calm - N/A   Overcast
8:55 AM 21.0 °C 20.0 °C 94% 1012.1 hPa 8.0 km Calm Calm - N/A   Overcast
9:15 AM 22.0 °C 20.0 °C 88% 1012.1 hPa 11.3 km Calm Calm - N/A   Overcast
9:35 AM 22.0 °C 20.0 °C 88% 1012.1 hPa 11.3 km Calm Calm - N/A   Overcast
9:55 AM 23.0 °C 20.0 °C 83% 1012.4 hPa 11.3 km Calm Calm - N/A   Overcast
10:15 AM 23.0 °C 20.0 °C 83% 1012.4 hPa 11.3 km ENE 9.3 km/h / 2.6 m/s - N/A   Overcast
10:35 AM 23.0 °C 20.0 °C 83% 1012.4 hPa 11.3 km East 7.4 km/h / 2.1 m/s - N/A   Overcast
10:55 AM 23.0 °C 20.0 °C 83% 1012.4 hPa 11.3 km ENE 7.4 km/h / 2.1 m/s - N/A   Overcast
11:15 AM 23.0 °C 20.0 °C 83% 1012.8 hPa 11.3 km ENE 7.4 km/h / 2.1 m/s - N/A   Overcast
11:35 AM 23.0 °C 20.0 °C 83% 1012.4 hPa 8.0 km East 7.4 km/h / 2.1 m/s - N/A   Overcast
11:55 AM 23.0 °C 20.0 °C 83% 1012.4 hPa 11.3 km East 5.6 km/h / 1.5 m/s - N/A   Overcast
12:15 PM 23.0 °C 20.0 °C 83% 1012.4 hPa 8.0 km ENE 7.4 km/h / 2.1 m/s - N/A   Overcast
12:35 PM 23.0 °C 20.0 °C 83% 1012.4 hPa 11.3 km NE 9.3 km/h / 2.6 m/s - N/A   Overcast
12:55 PM 23.0 °C 20.0 °C 83% 1012.4 hPa 8.0 km NE 7.4 km/h / 2.1 m/s - N/A   Haze
1:15 PM 23.0 °C 20.0 °C 83% 1012.1 hPa 11.3 km NE 7.4 km/h / 2.1 m/s - N/A   Overcast
1:35 PM 23.0 °C 20.0 °C 83% 1011.7 hPa 8.0 km ENE 7.4 km/h / 2.1 m/s - N/A   Overcast
1:55 PM 23.0 °C 20.0 °C 83% 1011.7 hPa 8.0 km East 5.6 km/h / 1.5 m/s - N/A   Overcast
2:15 PM 23.0 °C 21.0 °C 88% 1011.4 hPa 11.3 km ENE 7.4 km/h / 2.1 m/s - N/A   Light Drizzle
2:35 PM 23.0 °C 20.0 °C 83% 1011.4 hPa 11.3 km NNE 7.4 km/h / 2.1 m/s - N/A   Overcast
2:55 PM 23.0 °C 20.0 °C 83% 1011.4 hPa 6.4 km NE 7.4 km/h / 2.1 m/s - N/A   Mostly Cloudy
3:15 PM 23.0 °C 21.0 °C 88% 1011.1 hPa 11.3 km ENE 7.4 km/h / 2.1 m/s - N/A   Drizzle
3:35 PM 23.0 °C 21.0 °C 88% 1011.1 hPa 11.3 km NE 5.6 km/h / 1.5 m/s - N/A Rain Light Rain
3:55 PM 23.0 °C 21.0 °C 88% 1011.1 hPa 8.0 km Calm Calm - N/A   Light Drizzle
4:15 PM 23.0 °C 21.0 °C 88% 1010.7 hPa 8.0 km East 5.6 km/h / 1.5 m/s - N/A   Light Drizzle
4:35 PM 23.0 °C 21.0 °C 88% 1010.7 hPa 11.3 km Calm Calm - N/A   Light Drizzle
4:55 PM 23.0 °C 21.0 °C 88% 1010.7 hPa 8.0 km Calm Calm - N/A   Scattered Clouds
5:15 PM 23.0 °C 21.0 °C 88% 1010.7 hPa 8.0 km Calm Calm - N/A Rain Light Rain
5:35 PM 23.0 °C 21.0 °C 88% 1010.7 hPa 8.0 km Calm Calm - N/A   Light Drizzle
5:55 PM 23.0 °C 21.0 °C 88% 1010.7 hPa 8.0 km Calm Calm - N/A   Light Drizzle
6:15 PM 23.0 °C 21.0 °C 88% 1010.7 hPa 6.4 km Calm Calm - N/A   Light Drizzle
6:35 PM 23.0 °C 21.0 °C 88% 1010.7 hPa 6.4 km Calm Calm - N/A   Scattered Clouds
6:55 PM 23.0 °C 21.0 °C 88% 1010.7 hPa 4.8 km Calm Calm - N/A   Scattered Clouds
7:15 PM 23.0 °C 21.0 °C 88% 1011.1 hPa 6.4 km Calm Calm - N/A Rain Light Rain
7:35 PM 23.0 °C 21.0 °C 88% 1011.1 hPa 6.4 km Calm Calm - 0.3 mm Rain Light Rain
8:15 PM 23.0 °C 21.0 °C 88% 1011.1 hPa 4.0 km East 5.6 km/h / 1.5 m/s - N/A   Mist
8:35 PM 22.0 °C 21.0 °C 94% 1011.1 hPa 4.8 km ENE 7.4 km/h / 2.1 m/s - N/A   Mist
8:55 PM 22.0 °C 21.0 °C 94% 1010.7 hPa 4.8 km ENE 9.3 km/h / 2.6 m/s - N/A Rain Light Rain
9:15 PM 22.0 °C 21.0 °C 94% 1011.1 hPa 4.8 km East 7.4 km/h / 2.1 m/s - N/A   Light Drizzle
9:35 PM 22.0 °C 21.0 °C 94% 1011.1 hPa 4.8 km Calm Calm - N/A   Mist
9:55 PM 22.0 °C 21.0 °C 94% 1011.1 hPa 6.4 km East 5.6 km/h / 1.5 m/s - N/A   Light Drizzle
10:15 PM 22.0 °C 21.0 °C 94% 1011.4 hPa 8.0 km Calm Calm - N/A   Mist
10:35 PM 22.0 °C 21.0 °C 94% 1011.7 hPa 6.4 km Calm Calm - N/A   Overcast
10:55 PM 22.0 °C 21.0 °C 94% 1011.4 hPa 6.4 km Calm Calm - N/A Rain Light Rain
11:15 PM 22.0 °C 21.0 °C 94% 1011.4 hPa 6.4 km Calm Calm - N/A Rain Rain
11:35 PM 22.0 °C 21.0 °C 94% 1011.4 hPa 8.0 km Calm Calm - 0.3 mm   Drizzle
11:55 PM 22.0 °C 21.0 °C 94% 1011.4 hPa 4.0 km Calm Calm - 1.0 mm Rain Light Rain